North Platte, NE

3:20 PM CDT on March 30, 2017 (GMT -0500)
North Platte Regional-Bird

Weather History for KLBF - March, 2011

Change the Weather History Date:

Tuesday, March 8, 2011

  Actual Average Record
Temperature  
Mean Temperature 21 °F 36 °F  
Max Temperature 26 °F 50 °F 76 °F (1911)
Min Temperature 15 °F 21 °F -6 °F (1996)
Degree Days  
Heating Degree Days 44 29  
Month to date heating degree days 290 244  
Since 1 July heating degree days 5352 5272  
Cooling Degree Days 0 0  
Month to date cooling degree days 0 0  
Year to date cooling degree days 0 0  
Moisture  
Dew Point 17 °F    
Average Humidity 89    
Maximum Humidity 96    
Minimum Humidity 81    
Precipitation  
Precipitation 0.07 in 0.03 in 0.89 in (1893)
Month to date precipitation 0.34 0.22  
Year to date precipitation 2.07 1.06  
Snow  
Snow 0.80 in 0.20 in 1.20 in (2002)
Month to date snowfall 1.2 1.3  
Since 1 July snowfall 31.2 22.2  
Snow Depth 3.00 in    
Sea Level Pressure  
Sea Level Pressure 30.03 in    
Wind  
Wind Speed 8 mph (North)    
Max Wind Speed 20 mph    
Max Gust Speed 23 mph    
Visibility 4 miles    
Events Snow    
T = Trace of Precipitation, MM = Missing Value Source: NWS Daily Summary

Daily Weather History Graph

Daily Weather History Graph

Search for Another Location

Airport or City:

Trip Planner

Search our weather history database for the weather conditions in past years. The results will help you decide how hot, cold, wet, or windy it might be!

Date:

Astronomy

Mar. 08, 2011 Rise Set
Actual Time 7:06 AM CST 6:41 PM CST
Civil Twilight 6:38 AM CST 7:08 PM CST
Nautical Twilight 6:06 AM CST 7:40 PM CST
Astronomical Twilight 5:34 AM CST 8:12 PM CST
Moon 8:23 AM CST (3/8) 10:45 PM CST (3/8)
Length of Visible Light 12h 30m
Length of Day
11h 35m
Waxing Crescent, 13% of the Moon is Illuminated
Mar 8
Waxing Crescent
Mar 12
First Quarter
Mar 19
Full
Mar 26
Last Quarter
Apr 3
New

Hourly Weather History & Observations

Time (CST) Temp. Windchill Dew Point Humidity Pressure Visibility Wind Dir Wind Speed Gust Speed Precip Events Conditions
12:53 AM 15.1 °F 6.4 °F 12.9 °F 91% 30.08 in 3.0 mi NNE 5.8 mph - N/A   Overcast
1:17 AM 15.8 °F 5.1 °F 12.2 °F 86% 29.94 in 3.0 mi NE 8.1 mph - N/A   Overcast
1:53 AM 15.1 °F 6.4 °F 12.9 °F 91% 30.07 in 8.0 mi NE 5.8 mph - N/A   Overcast
2:53 AM 15.1 °F 4.2 °F 12.9 °F 91% 30.06 in 8.0 mi NE 8.1 mph - N/A   Overcast
3:53 AM 15.1 °F 1.1 °F 12.9 °F 91% 30.04 in 3.0 mi NNE 12.7 mph - N/A   Overcast
4:53 AM 15.1 °F 1.8 °F 12.9 °F 91% 30.03 in 4.0 mi NNE 11.5 mph - N/A   Overcast
5:07 AM 15.8 °F 4.2 °F 12.2 °F 86% 29.90 in 5.0 mi NNE 9.2 mph - N/A   Overcast
5:53 AM 15.1 °F -0.1 °F 12.9 °F 91% 30.02 in 4.0 mi NNE 15.0 mph - N/A   Overcast
6:39 AM 15.8 °F -0.2 °F 12.2 °F 86% 29.88 in 2.5 mi NE 17.3 mph - N/A   Overcast
6:53 AM 15.1 °F -0.6 °F 14.0 °F 95% 30.02 in 2.5 mi NNE 16.1 mph - N/A   Overcast
7:19 AM 15.8 °F - 15.8 °F 100% 29.92 in 3.0 mi Calm Calm - N/A   Overcast
7:30 AM 15.8 °F 8.6 °F 12.2 °F 86% 29.92 in 2.0 mi NNE 4.6 mph - N/A   Overcast
7:53 AM 15.1 °F 5.2 °F 14.0 °F 95% 30.06 in 3.0 mi NE 6.9 mph - N/A   Overcast
8:41 AM 15.8 °F 4.2 °F 14.0 °F 93% 29.94 in 1.8 mi NE 9.2 mph - 0.00 in Snow Light Snow
8:53 AM 16.0 °F 6.3 °F 15.1 °F 96% 30.08 in 1.0 mi NNE 6.9 mph - 0.00 in Snow Light Snow
9:29 AM 17.6 °F 9.3 °F 15.8 °F 93% 29.96 in 1.5 mi NE 5.8 mph - 0.02 in Snow Light Snow
9:37 AM 17.6 °F 8.2 °F 15.8 °F 93% 29.96 in 1.2 mi NE 6.9 mph - 0.02 in Snow Light Snow
9:53 AM 18.0 °F 6.9 °F 15.1 °F 88% 30.09 in 1.5 mi NNE 9.2 mph - 0.02 in Snow Light Snow
10:10 AM 17.6 °F 7.3 °F 15.8 °F 93% 29.97 in 1.2 mi NNE 8.1 mph - N/A Snow Light Snow
10:20 AM 17.6 °F 7.3 °F 15.8 °F 93% 29.97 in 1.2 mi NNE 8.1 mph - 0.01 in Snow Light Snow
10:37 AM 19.4 °F 10.4 °F 15.8 °F 86% 29.97 in 0.8 mi NNE 6.9 mph - 0.02 in Snow Light Snow
10:44 AM 19.4 °F 11.5 °F 15.8 °F 86% 29.97 in 1.0 mi NNE 5.8 mph - 0.02 in Snow Light Snow
10:53 AM 19.0 °F 10.0 °F 16.0 °F 88% 30.10 in 1.0 mi NNE 6.9 mph - 0.02 in Snow Light Snow
11:12 AM 19.4 °F 9.5 °F 17.6 °F 93% 29.97 in 0.8 mi NNE 8.1 mph - 0.01 in Snow Light Snow
11:19 AM 21.2 °F 11.7 °F 17.6 °F 86% 29.97 in 1.0 mi North 8.1 mph - 0.01 in Snow Light Snow
11:46 AM 21.2 °F 11.7 °F 17.6 °F 86% 29.97 in 1.5 mi NNE 8.1 mph - 0.01 in Snow Light Snow
11:53 AM 21.9 °F 11.7 °F 17.1 °F 82% 30.09 in 1.5 mi NNE 9.2 mph - 0.02 in Snow Light Snow
12:08 PM 21.2 °F 11.7 °F 17.6 °F 86% 29.97 in 2.5 mi NNE 8.1 mph - 0.00 in Snow Light Snow
12:16 PM 21.2 °F 10.9 °F 17.6 °F 86% 29.97 in 3.0 mi North 9.2 mph - 0.00 in Snow Light Snow
12:53 PM 21.9 °F 11.0 °F 18.0 °F 85% 30.10 in 2.0 mi NNE 10.4 mph - 0.00 in Snow Light Snow
1:08 PM 21.2 °F 10.1 °F 17.6 °F 86% 29.98 in 4.0 mi North 10.4 mph - 0.00 in Snow Light Snow
1:27 PM 23.0 °F 13.1 °F 17.6 °F 80% 29.97 in 2.5 mi North 9.2 mph - 0.01 in Snow Light Snow
1:36 PM 24.8 °F 15.3 °F 19.4 °F 80% 29.97 in 2.5 mi North 9.2 mph - N/A Snow Light Snow
1:53 PM 24.1 °F 13.7 °F 19.0 °F 81% 30.08 in 2.5 mi North 10.4 mph - 0.01 in Snow Light Snow
2:00 PM 23.0 °F 12.4 °F 17.6 °F 80% 29.96 in 4.0 mi North 10.4 mph - 0.00 in Snow Light Snow
2:44 PM 24.8 °F 15.3 °F 19.4 °F 80% 29.97 in 7.0 mi North 9.2 mph - 0.00 in   Overcast
2:53 PM 25.0 °F 16.3 °F 19.9 °F 81% 30.08 in 8.0 mi North 8.1 mph - 0.00 in   Overcast
3:53 PM 25.0 °F 16.3 °F 19.9 °F 81% 30.10 in 8.0 mi NNW 8.1 mph - N/A   Overcast
4:28 PM 26.6 °F 18.2 °F 19.4 °F 74% 30.00 in 9.0 mi North 8.1 mph - N/A   Overcast
4:53 PM 26.1 °F 16.8 °F 21.0 °F 81% 30.11 in 7.0 mi NNW 9.2 mph - N/A   Overcast
5:29 PM 26.6 °F 18.2 °F 21.2 °F 80% 30.01 in 10.0 mi North 8.1 mph - N/A   Overcast
5:53 PM 26.1 °F 17.6 °F 21.0 °F 81% 30.12 in 9.0 mi North 8.1 mph - N/A   Overcast
6:04 PM 26.6 °F 19.1 °F 21.2 °F 80% 30.02 in 10.0 mi North 6.9 mph - N/A   Overcast
6:14 PM 26.6 °F 19.1 °F 21.2 °F 80% 30.02 in 8.0 mi North 6.9 mph - N/A   Overcast
6:53 PM 25.0 °F 18.1 °F 21.0 °F 85% 30.14 in 9.0 mi North 5.8 mph - N/A   Overcast
7:27 PM 24.8 °F 20.5 °F 21.2 °F 86% 30.02 in 9.0 mi North 3.5 mph - 0.00 in   Overcast
7:53 PM 24.1 °F 18.2 °F 21.0 °F 88% 30.15 in 8.0 mi NNW 4.6 mph - 0.00 in   Overcast
8:17 PM 24.8 °F 19.1 °F 21.2 °F 86% 30.03 in 5.0 mi North 4.6 mph - 0.00 in Snow Light Snow
8:53 PM 23.0 °F 17.0 °F 19.9 °F 88% 30.15 in 5.0 mi NW 4.6 mph - 0.00 in Snow Light Snow
9:14 PM 23.0 °F 17.0 °F 19.4 °F 86% 30.04 in 6.0 mi NW 4.6 mph - 0.00 in Snow Light Snow
9:26 PM 23.0 °F 18.4 °F 21.2 °F 93% 30.04 in 2.5 mi NNW 3.5 mph - N/A Snow Light Snow
9:37 PM 23.0 °F - 21.2 °F 93% 30.03 in 1.8 mi Calm Calm - 0.00 in Snow Light Snow
9:48 PM 23.0 °F 18.4 °F 21.2 °F 93% 30.04 in 3.0 mi NNW 3.5 mph - 0.00 in Snow Light Snow
9:49 PM 23.0 °F 18.4 °F 21.0 °F 92% 30.15 in 3.0 mi NW 3.5 mph - 0.00 in Snow Light Snow
10:53 PM 21.9 °F 15.7 °F 21.0 °F 96% 30.17 in 6.0 mi NW 4.6 mph - 0.00 in   Overcast
11:38 PM 17.6 °F 9.3 °F 17.6 °F 100% 30.04 in 7.0 mi NW 5.8 mph - 0.00 in   Mostly Cloudy
11:46 PM 15.8 °F 8.6 °F 15.8 °F 100% 30.05 in 7.0 mi NW 4.6 mph - 0.00 in   Mostly Cloudy
11:53 PM 16.0 °F 10.4 °F 15.1 °F 96% 30.17 in 7.0 mi NW 3.5 mph - 0.00 in   Scattered Clouds